#timestamp,LO_Frequency,Hit,StdDev 
1678294815.8,286047000.2,N
1678294835.7,286047002.4,N
1678294855.5,286046999.7,N
1678294875.3,286047002.4,N
1678294895.2,286047002.4,N
1678294915.5,286047002.4,N
1678294935.3,286047000.0,N
1678294955.2,286047000.3,N
1678294975.0,286047000.2,N
1678294975.9,286047000.2,N
1678294995.8,286047000.3,N
1678295015.6,286046998.2,N
1678295035.4,286047000.8,N
1678295055.3,286047000.3,N
1678295075.1,286047000.5,N
1678295095.8,286047000.8,N
1678295115.7,286046999.0,N
1678295135.5,286046999.0,N
1678295155.3,286047001.0,N
1678295175.2,286046998.8,N
1678295195.0,286046998.5,N
1678295195.9,286046998.5,N
1678295215.8,286046999.5,N
1678295235.6,286046999.5,N
1678295255.4,286046996.7,N
1678295275.3,286046997.7,N
1678295295.1,286046997.1,N
1678295315.8,286046997.0,N
1678295335.7,286046996.9,N
1678295355.5,286046997.1,N
1678295375.4,286046996.7,N
1678295395.2,286046999.1,N
1678295415.0,286046996.7,N
1678295415.9,286046996.7,N
1678295435.8,286046999.6,N
1678295455.6,286046998.6,N
1678295475.5,286046998.8,N
1678295495.3,286046999.5,N
1678295515.1,286046996.9,N
1678295535.9,286046998.5,N
1678295555.7,286046998.7,N
1678295575.5,286046999.3,N
1678295595.4,286046998.1,N
1678295615.2,286046998.1,N
1678295635.1,286046998.2,N
1678295636.0,286046998.2,N
1678295655.8,286047001.1,N
1678295675.6,286047000.5,N
1678295695.5,286046998.2,N
1678295715.4,286046998.5,N
1678295735.2,286046998.1,N
1678295755.0,286046998.1,N
1678295755.9,286046998.1,N
1678295775.8,286046998.9,N
1678295795.6,286046998.1,N
1678295815.5,286047001.1,N
1678295835.3,286046998.2,N
1678295855.2,286046999.1,N
1678295875.9,286046998.7,N
1678295925.8,286046996.9,E
1678295935.7,286046998.3,N
1678295955.5,286047002.7,P
1678295975.4,286047002.2,N
1678295995.2,286047002.8,N
1678296015.0,286047000.3,N
1678296015.9,286047000.3,N
1678296035.8,286047000.0,N
1678296055.6,286046999.8,N
1678296075.4,286047001.4,N
1678296095.3,286047001.6,N
1678296115.1,286047000.2,N
1678296135.9,286047002.8,N
1678296155.7,286047002.8,N
1678296175.5,286047002.5,N
1678296195.4,286047002.2,N
1678296215.2,286047002.1,N
1678296235.0,286047001.5,N
1678296236.0,286047001.5,N
1678296255.8,286047004.4,Y
1678296275.6,286046999.8,P
1678296295.5,286047000.2,N
1678296315.3,286047002.8,P
1678296335.1,286047000.4,N
1678296355.9,286047000.3,N
1678296375.7,286047000.0,N
1678296395.6,286047002.8,N
1678296415.4,286047002.5,N
1678296435.2,286047002.7,N
1678296455.1,286047002.0,N
1678296456.0,286047002.0,N
1678296475.8,286047001.6,N
1678296495.6,286047002.5,N
1678296515.5,286047002.5,N
1678296535.3,286047002.8,N
1678296555.2,286047001.0,N
1678296575.9,286046998.6,N
1678296595.7,286046998.7,N
1678296615.6,286046998.8,N
1678296635.4,286046998.3,N
1678296655.2,286047000.7,N
1678296675.1,286046998.1,N
1678296676.0,286046998.1,N
1678296695.8,286047000.5,N
1678296715.7,286046998.5,N
1678296735.5,286047000.8,N
1678296755.3,286046998.5,N
1678296775.2,286046998.4,N
1678296795.0,286047001.0,N
1678296795.9,286047001.0,N
1678296815.8,286046998.1,N
1678296835.6,286047000.7,N
1678296855.4,286047002.8,N
1678296875.3,286047000.6,N
1678296895.1,286046999.0,N
1678296915.9,286046999.4,N
1678296935.7,286046998.9,N
1678296955.5,286046999.1,N
1678296975.4,286046999.2,N
1678296995.2,286046999.1,N
1678297015.1,286046997.0,N
1678297016.0,286046997.0,N
1678297035.8,286046999.5,N
1678297055.6,286046996.5,N
1678297075.5,286046995.4,Y
1678297095.3,286046997.4,P
1678297115.2,286046995.1,P
1678297135.9,286046996.2,N
1678297155.7,286046996.3,N
1678297175.6,286046993.9,Y
1678297195.4,286046996.8,P
1678297215.2,286046996.5,P
1678297235.1,286046997.1,P
1678297236.0,286046997.1,Y
1678297255.8,286046999.7,P
1678297275.7,286047002.3,N
1678297295.5,286047002.5,N
1678297315.4,286047002.0,N
1678297335.2,286047002.5,N
1678297355.0,286047000.6,N
1678297355.9,286047000.6,N
1678297375.8,286047000.9,N
1678297395.6,286046998.2,N
1678297415.4,286046999.4,N
1678297435.3,286046999.1,N
1678297455.1,286047001.1,N
1678297475.9,286047000.8,N
1678297495.7,286046999.0,N
1678297515.5,286046999.4,N
1678297535.4,286046998.4,N
1678297555.2,286047001.0,N
1678297575.1,286047001.2,N
1678297576.0,286047001.2,N
1678297595.8,286046998.3,N
1678297615.6,286046998.3,N
1678297635.5,286046996.6,N
1678297655.3,286046996.9,N
1678297675.2,286046996.7,N
1678297695.9,286046997.3,N
1678297715.7,286046997.9,N
1678297735.6,286046995.3,N
1678297755.4,286046995.0,N
1678297775.3,286046995.8,N
1678297795.1,286046997.2,N
1678297796.0,286046997.2,N
1678297815.8,286046997.8,N
1678297835.7,286046997.6,N
1678297855.5,286046997.2,N
1678297875.4,286046997.6,N
1678297895.2,286046997.8,N
1678297915.0,286046997.2,N
1678297915.9,286046997.2,N
1678297935.8,286046995.0,Y
1678297955.6,286046996.6,P
1678297975.4,286046997.4,P
1678297995.3,286046997.2,P
1678298015.1,286046997.0,Y
1678298035.9,286047002.8,P
1678298055.7,286047001.0,N
1678298075.5,286047000.9,N
1678298095.4,286047000.8,N
1678298115.2,286047000.3,N
1678298135.0,286046999.8,N
1678298136.0,286046999.8,N
1678298155.8,286046998.6,N
1678298175.6,286047001.1,N
1678298195.5,286047000.8,N
1678298215.3,286046998.6,N
1678298235.1,286046999.4,N
1678298255.9,286046998.1,N
1678298275.7,286047000.6,N
1678298295.5,286047000.7,N
1678298315.4,286046998.3,N
1678298335.2,286046998.8,N
1678298355.1,286046999.2,N
1678298356.0,286046999.2,N
1678298375.8,286047001.0,N
1678298395.6,286047000.2,N
